Weather History for Spokane Felts, WA

Change the Weather History Date:

Tuesday, July 23, 2013

  Actual Average Record
Temperature  
Mean Temperature 78 °F 71 °F  
Max Temperature 97 °F 87 °F 104 °F (2006)
Min Temperature 58 °F 55 °F 46 °F (2011)
Degree Days  
Heating Degree Days 0 0  
Month to date heating degree days 0 18  
Since 1 June heating degree days 105 136  
Since 1 July heating degree days 0 18  
Cooling Degree Days 13 7  
Month to date cooling degree days 206 116  
Year to date cooling degree days 289 163  
Since 1 June cooling degree days 263 156  
Growing Degree Days 28 (Base 50)    
Moisture  
Dew Point 41 °F    
Average Humidity 34    
Maximum Humidity 57    
Minimum Humidity 10    
Precipitation  
Precipitation 0.00 in 0.02 in 0.01 in (2007)
Month to date precipitation T 0.70  
Year to date precipitation 7.96 9.92  
Sea Level Pressure  
Sea Level Pressure 29.92 in    
Wind  
Wind Speed 3 mph (NE)    
Max Wind Speed 12 mph    
Max Gust Speed 17 mph    
Visibility 10 miles    
Events      
T = Trace of Precipitation, MM = Missing Value Source: NWS Daily Summary

Daily Weather History Graph

Daily Weather History Graph

Search for Another Location

Airport:

Trip Planner

Search our weather history database for the weather conditions in past years. The results will help you decide how hot, cold, wet, or windy it might be!

Date:

Astronomy

Jul. 23, 2013 Rise Set
Actual Time 5:15 AM PDT 8:34 PM PDT
Civil Twilight 4:38 AM PDT 9:12 PM PDT
Nautical Twilight 3:48 AM PDT 10:01 PM PDT
Astronomical Twilight 2:45 AM PDT 11:04 PM PDT
Moon 8:53 PM PDT (7/23) 6:39 AM PDT (7/23)
Length of Visible Light 16h 34m
Length of Day
15h 19m
Full, 98% of the Moon is Illuminated
Jul 23
Full
Jul 29
Last Quarter
Aug 6
New
Aug 14
First Quarter
Aug 20
Full

Hourly Weather History & Observations

Time (PDT) Temp. Dew Point Humidity Pressure Visibility Wind Dir Wind Speed Gust Speed Precip Events Conditions
12:53 AM 66.0 °F 43.0 °F 43% 29.88 in 10.0 mi NNE 3.5 mph - N/A   Clear
1:53 AM 66.0 °F 43.0 °F 43% 29.89 in 10.0 mi NE 5.8 mph - N/A   Clear
2:53 AM 64.0 °F 45.0 °F 50% 29.90 in 10.0 mi NNE 4.6 mph - N/A   Clear
3:53 AM 64.0 °F 44.1 °F 48% 29.91 in 10.0 mi NNE 4.6 mph - N/A   Clear
4:53 AM 59.0 °F 42.1 °F 53% 29.93 in 10.0 mi Calm Calm - N/A   Clear
5:53 AM 59.0 °F 45.0 °F 60% 29.94 in 10.0 mi NE 3.5 mph - N/A   Clear
6:53 AM 64.9 °F 48.9 °F 56% 29.95 in 10.0 mi Calm Calm - N/A   Clear
7:53 AM 72.0 °F 45.0 °F 38% 29.96 in 10.0 mi Calm Calm - N/A   Clear
8:53 AM 75.0 °F 44.1 °F 33% 29.98 in 10.0 mi Calm Calm - N/A   Clear
9:53 AM 81.0 °F 44.1 °F 27% 29.98 in 10.0 mi Calm Calm - N/A   Clear
10:53 AM 86.0 °F 45.0 °F 24% 29.98 in 10.0 mi SW 6.9 mph - N/A   Clear
11:53 AM 89.1 °F 44.1 °F 21% 29.97 in 10.0 mi Variable 3.5 mph - N/A   Clear
12:53 PM 91.0 °F 42.1 °F 18% 29.95 in 10.0 mi Variable 4.6 mph - N/A   Clear
1:53 PM 93.0 °F 42.1 °F 17% 29.94 in 10.0 mi Variable 3.5 mph - N/A   Clear
2:53 PM 96.1 °F 37.0 °F 13% 29.92 in 10.0 mi South 8.1 mph - N/A   Clear
3:53 PM 96.1 °F 36.0 °F 12% 29.90 in 10.0 mi SSW 5.8 mph - N/A   Clear
4:53 PM 96.1 °F 35.1 °F 12% 29.88 in 10.0 mi Variable 5.8 mph - N/A   Clear
5:53 PM 96.1 °F 35.1 °F 12% 29.87 in 10.0 mi Calm Calm - N/A   Clear
6:53 PM 95.0 °F 30.9 °F 10% 29.86 in 10.0 mi SSW 8.1 mph - N/A   Clear
7:53 PM 93.0 °F 28.9 °F 10% 29.86 in 10.0 mi South 4.6 mph - N/A   Clear
8:53 PM 77.0 °F 37.9 °F 24% 29.88 in 10.0 mi Calm Calm - N/A   Clear
9:53 PM 73.9 °F 37.9 °F 27% 29.88 in 10.0 mi NNE 3.5 mph - N/A   Clear
10:53 PM 71.1 °F 42.1 °F 35% 29.88 in 10.0 mi NE 4.6 mph - N/A   Clear
11:53 PM 68.0 °F 41.0 °F 37% 29.89 in 10.0 mi NE 3.5 mph - N/A   Clear